Time,TemperatureF,DewpointF,PressureIn,WindDirection,WindDirectionDegrees,WindSpeedMPH,WindSpeedGustMPH,Humidity,HourlyPrecipIn,Conditions,Clouds,dailyrainin,SoftwareType,DateUTC
2013-06-08 00:03:00,56.5,49.7,30.36,West,280,0.0,0.2,78,0.00,CLR,FEW,0.00,WeatherDisplay:10.37,2013-06-07 23:03:00,
2013-06-08 00:08:00,56.5,49.7,30.36,West,280,0.0,0.2,78,0.00,CLR,FEW,0.00,WeatherDisplay:10.37,2013-06-07 23:08:00,
2013-06-08 00:13:00,56.3,49.5,30.36,WSW,258,0.0,0.4,78,0.00,CLR,FEW,0.00,WeatherDisplay:10.37,2013-06-07 23:13:00,
2013-06-08 00:18:00,56.3,49.5,30.36,West,280,2.1,2.1,78,0.00,CLR,FEW,0.00,WeatherDisplay:10.37,2013-06-07 23:18:00,
2013-06-08 00:24:00,56.1,49.7,30.35,WNW,302,0.0,0.1,79,0.00,CLR,FEW,0.00,WeatherDisplay:10.37,2013-06-07 23:24:00,
2013-06-08 00:29:00,55.9,49.5,30.35,WNW,302,0.0,0.1,79,0.00,CLR,FEW,0.00,WeatherDisplay:10.37,2013-06-07 23:29:00,
2013-06-08 00:34:00,55.8,49.3,30.35,WNW,302,0.0,0.0,79,0.00,CLR,FEW,0.00,WeatherDisplay:10.37,2013-06-07 23:34:00,
2013-06-08 00:39:00,55.6,49.2,30.35,WNW,302,0.0,0.0,79,0.00,CLR,FEW,0.00,WeatherDisplay:10.37,2013-06-07 23:39:00,
2013-06-08 00:45:00,55.6,49.5,30.35,WNW,302,0.0,0.0,80,0.00,CLR,FEW,0.00,WeatherDisplay:10.37,2013-06-07 23:45:00,
2013-06-08 00:50:00,54.9,48.8,30.35,SE,145,0.0,0.0,80,0.00,CLR,FEW,0.00,WeatherDisplay:10.37,2013-06-07 23:50:00,
2013-06-08 00:55:00,54.7,49.0,30.35,SE,145,0.0,0.0,81,0.00,CLR,FEW,0.00,WeatherDisplay:10.37,2013-06-07 23:55:00,
2013-06-08 01:01:00,54.5,48.8,30.34,SE,145,0.0,0.0,81,0.00,CLR,FEW,0.00,WeatherDisplay:10.37,2013-06-08 00:01:00,
2013-06-08 01:06:00,54.3,48.6,30.34,SE,145,0.0,0.0,81,0.00,CLR,FEW,0.00,WeatherDisplay:10.37,2013-06-08 00:06:00,
2013-06-08 01:11:00,54.1,48.8,30.34,SE,145,0.0,0.0,82,0.00,CLR,FEW,0.00,WeatherDisplay:10.37,2013-06-08 00:11:00,
2013-06-08 01:17:00,54.0,48.6,30.34,SE,145,0.0,0.0,82,0.00,CLR,FEW,0.00,WeatherDisplay:10.37,2013-06-08 00:17:00,
2013-06-08 01:22:00,53.8,48.7,30.35,SE,145,0.0,0.0,83,0.00,CLR,FEW,0.00,WeatherDisplay:10.37,2013-06-08 00:22:00,
2013-06-08 01:28:00,53.8,48.7,30.35,WSW,258,0.0,0.1,83,0.00,CLR,FEW,0.00,WeatherDisplay:10.37,2013-06-08 00:28:00,
2013-06-08 01:33:00,53.6,48.6,30.35,WSW,258,0.0,0.1,83,0.00,CLR,FEW,0.00,WeatherDisplay:10.37,2013-06-08 00:33:00,
2013-06-08 01:38:00,53.6,48.6,30.35,SE,145,0.0,0.0,83,0.00,CLR,FEW,0.00,WeatherDisplay:10.37,2013-06-08 00:38:00,
2013-06-08 01:43:00,53.6,48.6,30.34,SE,145,0.0,0.0,83,0.00,CLR,FEW,0.00,WeatherDisplay:10.37,2013-06-08 00:43:00,
2013-06-08 01:48:00,53.4,48.7,30.34,SE,145,0.0,0.0,84,0.00,CLR,FEW,0.00,WeatherDisplay:10.37,2013-06-08 00:48:00,
2013-06-08 01:53:00,53.4,48.7,30.34,SE,145,0.0,0.0,84,0.00,CLR,FEW,0.00,WeatherDisplay:10.37,2013-06-08 00:53:00,
2013-06-08 01:59:00,53.4,48.7,30.34,West,280,1.6,1.6,84,0.00,CLR,FEW,0.00,WeatherDisplay:10.37,2013-06-08 00:59:00,
2013-06-08 02:04:00,53.4,48.7,30.33,West,280,1.3,1.3,84,0.00,CLR,FEW,0.00,WeatherDisplay:10.37,2013-06-08 01:04:00,
2013-06-08 02:09:00,53.4,48.7,30.33,West,280,0.0,0.4,84,0.00,CLR,FEW,0.00,WeatherDisplay:10.37,2013-06-08 01:09:00,
2013-06-08 02:15:00,53.6,48.9,30.33,ESE,122,0.0,0.1,84,0.00,CLR,FEW,0.00,WeatherDisplay:10.37,2013-06-08 01:15:00,
2013-06-08 02:20:00,53.4,48.7,30.32,WSW,258,0.0,0.0,84,0.00,CLR,FEW,0.00,WeatherDisplay:10.37,2013-06-08 01:20:00,
2013-06-08 02:25:00,53.4,48.7,30.32,WSW,258,0.0,0.0,84,0.00,CLR,FEW,0.00,WeatherDisplay:10.37,2013-06-08 01:25:00,
2013-06-08 02:30:00,53.1,48.4,30.32,West,280,0.0,0.0,84,0.00,CLR,FEW,0.00,WeatherDisplay:10.37,2013-06-08 01:30:00,
2013-06-08 02:35:00,53.1,48.7,30.32,ESE,122,0.0,0.0,85,0.00,CLR,FEW,0.00,WeatherDisplay:10.37,2013-06-08 01:35:00,
2013-06-08 02:41:00,52.9,48.5,30.32,WSW,258,0.0,0.0,85,0.00,CLR,FEW,0.00,WeatherDisplay:10.37,2013-06-08 01:41:00,
2013-06-08 02:46:00,52.9,48.5,30.32,West,280,0.0,0.0,85,0.00,CLR,FEW,0.00,WeatherDisplay:10.37,2013-06-08 01:46:00,
2013-06-08 02:51:00,52.9,48.5,30.32,NW,325,0.0,0.0,85,0.00,CLR,FEW,0.00,WeatherDisplay:10.37,2013-06-08 01:51:00,
2013-06-08 02:57:00,52.9,48.8,30.32,NW,325,2.3,2.3,86,0.00,CLR,FEW,0.00,WeatherDisplay:10.37,2013-06-08 01:57:00,
2013-06-08 03:02:00,53.4,49.3,30.31,NW,325,2.1,2.1,86,0.00,CLR,FEW,0.00,WeatherDisplay:10.37,2013-06-08 02:02:00,
2013-06-08 03:07:00,53.4,49.3,30.31,NW,325,2.3,2.3,86,0.00,CLR,FEW,0.00,WeatherDisplay:10.37,2013-06-08 02:07:00,
2013-06-08 03:13:00,53.4,48.7,30.31,East,100,2.3,2.3,84,0.00,CLR,FEW,0.00,WeatherDisplay:10.37,2013-06-08 02:13:00,
2013-06-08 03:18:00,53.6,48.9,30.31,East,100,1.2,1.2,84,0.00,CLR,FEW,0.00,WeatherDisplay:10.37,2013-06-08 02:18:00,
2013-06-08 03:23:00,53.8,48.7,30.32,NW,325,1.4,1.4,83,0.00,CLR,FEW,0.00,WeatherDisplay:10.37,2013-06-08 02:23:00,
2013-06-08 03:28:00,53.6,48.6,30.32,East,100,1.2,1.2,83,0.00,CLR,FEW,0.00,WeatherDisplay:10.37,2013-06-08 02:28:00,
2013-06-08 03:33:00,53.6,48.2,30.32,NW,325,1.2,1.2,82,0.00,CLR,FEW,0.00,WeatherDisplay:10.37,2013-06-08 02:33:00,
2013-06-08 03:39:00,53.4,48.1,30.32,ENE,78,1.2,1.2,82,0.00,CLR,FEW,0.00,WeatherDisplay:10.37,2013-06-08 02:39:00,
2013-06-08 03:44:00,53.4,48.1,30.31,NW,325,1.2,1.2,82,0.00,CLR,FEW,0.00,WeatherDisplay:10.37,2013-06-08 02:44:00,
2013-06-08 03:49:00,53.4,48.1,30.31,West,280,0.0,0.4,82,0.00,CLR,FEW,0.00,WeatherDisplay:10.37,2013-06-08 02:49:00,
2013-06-08 03:54:00,53.4,48.1,30.31,ESE,122,0.0,0.2,82,0.00,CLR,FEW,0.00,WeatherDisplay:10.37,2013-06-08 02:54:00,
2013-06-08 03:59:00,53.1,47.7,30.31,SE,145,0.0,0.0,82,0.00,CLR,FEW,0.00,WeatherDisplay:10.37,2013-06-08 02:59:00,
2013-06-08 04:05:00,52.7,47.4,30.28,WNW,302,0.0,0.0,82,0.00,CLR,FEW,0.00,WeatherDisplay:10.37,2013-06-08 03:05:00,
2013-06-08 04:10:00,52.7,47.7,30.28,NW,325,0.0,0.0,83,0.00,CLR,FEW,0.00,WeatherDisplay:10.37,2013-06-08 03:10:00,
2013-06-08 04:15:00,52.7,47.7,30.28,WSW,258,0.0,0.0,83,0.00,CLR,FEW,0.00,WeatherDisplay:10.37,2013-06-08 03:15:00,
2013-06-08 04:21:00,52.7,47.7,30.29,NW,325,0.0,0.0,83,0.00,CLR,FEW,0.00,WeatherDisplay:10.37,2013-06-08 03:21:00,
2013-06-08 04:26:00,52.5,47.8,30.29,NW,325,0.0,0.0,84,0.00,CLR,FEW,0.00,WeatherDisplay:10.37,2013-06-08 03:26:00,
2013-06-08 04:31:00,52.7,48.0,30.29,WNW,302,0.0,0.0,84,0.00,CLR,FEW,0.00,WeatherDisplay:10.37,2013-06-08 03:31:00,
2013-06-08 04:36:00,52.7,48.0,30.29,West,280,0.0,0.0,84,0.00,CLR,FEW,0.00,WeatherDisplay:10.37,2013-06-08 03:36:00,
2013-06-08 04:41:00,52.5,47.8,30.27,WSW,258,0.0,0.0,84,0.00,CLR,FEW,0.00,WeatherDisplay:10.37,2013-06-08 03:41:00,
2013-06-08 04:47:00,52.3,47.3,30.27,ENE,78,0.0,0.0,83,0.00,CLR,FEW,0.00,WeatherDisplay:10.37,2013-06-08 03:47:00,
2013-06-08 04:52:00,52.2,47.5,30.27,East,100,0.0,0.0,84,0.00,CLR,FEW,0.00,WeatherDisplay:10.37,2013-06-08 03:52:00,
2013-06-08 04:57:00,52.3,47.6,30.27,NW,325,1.2,1.2,84,0.00,CLR,FEW,0.00,WeatherDisplay:10.37,2013-06-08 03:57:00,
2013-06-08 05:01:00,52.2,47.5,30.28,NW,325,1.2,1.2,84,0.00,CLR,FEW,0.00,WeatherDisplay:10.37,2013-06-08 04:01:00,
2013-06-08 05:06:00,52.2,47.5,30.28,SSW,212,0.0,0.1,84,0.00,CLR,FEW,0.00,WeatherDisplay:10.37,2013-06-08 04:06:00,
2013-06-08 05:11:00,52.2,47.8,30.28,NW,325,1.3,1.3,85,0.00,CLR,FEW,0.00,WeatherDisplay:10.37,2013-06-08 04:11:00,
2013-06-08 05:17:00,52.2,47.8,30.28,WSW,258,1.2,1.2,85,0.00,CLR,FEW,0.00,WeatherDisplay:10.37,2013-06-08 04:17:00,
2013-06-08 05:22:00,52.0,47.6,30.27,SE,145,0.0,0.0,85,0.00,CLR,FEW,0.00,WeatherDisplay:10.37,2013-06-08 04:22:00,
2013-06-08 05:27:00,52.0,47.6,30.27,NW,325,0.0,0.0,85,0.00,CLR,FEW,0.00,WeatherDisplay:10.37,2013-06-08 04:27:00,
2013-06-08 05:32:00,52.0,47.9,30.27,West,280,0.0,0.0,86,0.00,CLR,FEW,0.00,WeatherDisplay:10.37,2013-06-08 04:32:00,
2013-06-08 05:37:00,52.0,47.9,30.27,WNW,302,0.0,0.0,86,0.00,CLR,FEW,0.00,WeatherDisplay:10.37,2013-06-08 04:37:00,
2013-06-08 05:42:00,51.8,47.7,30.28,WNW,302,0.0,0.1,86,0.00,CLR,FEW,0.00,WeatherDisplay:10.37,2013-06-08 04:42:00,
2013-06-08 05:47:00,52.0,47.9,30.28,WSW,258,0.0,0.1,86,0.00,CLR,FEW,0.00,WeatherDisplay:10.37,2013-06-08 04:47:00,
2013-06-08 05:52:00,52.0,47.9,30.28,ESE,122,0.0,0.1,86,0.00,CLR,FEW,0.00,WeatherDisplay:10.37,2013-06-08 04:52:00,
2013-06-08 05:57:00,52.0,47.9,30.28,ESE,122,0.0,0.0,86,0.00,CLR,FEW,0.00,WeatherDisplay:10.37,2013-06-08 04:57:00,
2013-06-08 06:02:00,51.8,48.1,30.28,WSW,258,0.0,0.0,87,0.00,CLR,FEW,0.00,WeatherDisplay:10.37,2013-06-08 05:02:00,
2013-06-08 06:07:00,51.8,48.1,30.28,WSW,258,0.0,0.0,87,0.00,CLR,FEW,0.00,WeatherDisplay:10.37,2013-06-08 05:07:00,
2013-06-08 06:12:00,52.3,48.6,30.28,WSW,258,0.0,0.0,87,0.00,CLR,FEW,0.00,WeatherDisplay:10.37,2013-06-08 05:12:00,
2013-06-08 06:17:00,52.2,48.4,30.28,WNW,302,0.0,0.0,87,0.00,CLR,FEW,0.00,WeatherDisplay:10.37,2013-06-08 05:17:00,
2013-06-08 06:22:00,52.5,48.8,30.28,NW,325,0.0,0.2,87,0.00,CLR,FEW,0.00,WeatherDisplay:10.37,2013-06-08 05:22:00,
2013-06-08 06:27:00,53.1,49.3,30.28,WSW,258,2.3,2.3,87,0.00,CLR,FEW,0.00,WeatherDisplay:10.37,2013-06-08 05:27:00,
2013-06-08 06:32:00,53.1,49.3,30.28,NW,325,2.3,2.3,87,0.00,CLR,FEW,0.00,WeatherDisplay:10.37,2013-06-08 05:32:00,
2013-06-08 06:37:00,53.4,49.6,30.28,NW,325,2.3,2.3,87,0.00,CLR,FEW,0.00,WeatherDisplay:10.37,2013-06-08 05:37:00,
2013-06-08 06:42:00,53.8,50.0,30.27,NW,325,2.3,2.3,87,0.00,CLR,FEW,0.00,WeatherDisplay:10.37,2013-06-08 05:42:00,
2013-06-08 06:47:00,54.1,50.4,30.27,WSW,258,1.2,1.2,87,0.00,CLR,FEW,0.00,WeatherDisplay:10.37,2013-06-08 05:47:00,
2013-06-08 06:52:00,55.2,51.1,30.27,NW,325,2.7,2.7,86,0.00,CLR,FEW,0.00,WeatherDisplay:10.37,2013-06-08 05:52:00,
2013-06-08 06:57:00,55.8,51.3,30.27,NW,325,2.3,2.3,85,0.00,CLR,FEW,0.00,WeatherDisplay:10.37,2013-06-08 05:57:00,
2013-06-08 07:02:00,56.5,51.7,30.27,NW,325,3.5,3.5,84,0.00,CLR,FEW,0.00,WeatherDisplay:10.37,2013-06-08 06:02:00,
2013-06-08 07:07:00,57.4,52.3,30.27,NW,325,1.2,1.8,83,0.00,CLR,FEW,0.00,WeatherDisplay:10.37,2013-06-08 06:07:00,
2013-06-08 07:12:00,57.9,52.5,30.27,NW,325,2.3,2.3,82,0.00,CLR,FEW,0.00,WeatherDisplay:10.37,2013-06-08 06:12:00,
2013-06-08 07:17:00,58.6,52.8,30.27,WNW,302,1.2,1.2,81,0.00,CLR,FEW,0.00,WeatherDisplay:10.37,2013-06-08 06:17:00,
2013-06-08 07:22:00,59.5,53.0,30.27,NW,325,4.6,4.6,79,0.00,CLR,FEW,0.00,WeatherDisplay:10.37,2013-06-08 06:22:00,
2013-06-08 07:27:00,60.3,53.7,30.27,NW,325,2.3,2.3,79,0.00,CLR,FEW,0.00,WeatherDisplay:10.37,2013-06-08 06:27:00,
2013-06-08 07:32:00,62.1,54.4,30.27,NW,325,2.3,2.3,76,0.00,CLR,FEW,0.00,WeatherDisplay:10.37,2013-06-08 06:32:00,
2013-06-08 07:37:00,62.8,54.4,30.27,East,100,2.3,2.3,74,0.00,CLR,FEW,0.00,WeatherDisplay:10.37,2013-06-08 06:37:00,
2013-06-08 07:42:00,62.6,54.2,30.28,NW,325,0.0,1.1,74,0.00,CLR,FEW,0.00,WeatherDisplay:10.37,2013-06-08 06:42:00,
2013-06-08 07:47:00,62.4,53.6,30.28,West,280,4.6,4.6,73,0.00,CLR,FEW,0.00,WeatherDisplay:10.37,2013-06-08 06:47:00,
2013-06-08 07:52:00,62.6,53.8,30.28,NW,325,3.9,3.9,73,0.00,CLR,FEW,0.00,WeatherDisplay:10.37,2013-06-08 06:52:00,
2013-06-08 07:57:00,63.0,53.8,30.28,East,100,3.5,3.5,72,0.00,CLR,FEW,0.00,WeatherDisplay:10.37,2013-06-08 06:57:00,
2013-06-08 08:03:00,63.3,54.1,30.28,West,280,3.5,3.5,72,0.00,CLR,FEW,0.00,WeatherDisplay:10.37,2013-06-08 07:03:00,
2013-06-08 08:08:00,63.7,54.1,30.28,ENE,78,2.3,2.3,71,0.00,CLR,FEW,0.00,WeatherDisplay:10.37,2013-06-08 07:08:00,
2013-06-08 08:13:00,64.2,54.2,30.28,NW,325,3.5,3.5,70,0.00,CLR,FEW,0.00,WeatherDisplay:10.37,2013-06-08 07:13:00,
2013-06-08 08:18:00,64.2,54.2,30.28,South,190,4.6,4.6,70,0.00,CLR,FEW,0.00,WeatherDisplay:10.37,2013-06-08 07:18:00,
2013-06-08 08:23:00,64.4,54.4,30.29,NW,325,3.5,3.5,70,0.00,CLR,FEW,0.00,WeatherDisplay:10.37,2013-06-08 07:23:00,
2013-06-08 08:28:00,64.6,54.2,30.29,East,100,2.3,2.3,69,0.00,CLR,FEW,0.00,WeatherDisplay:10.37,2013-06-08 07:28:00,
2013-06-08 08:33:00,64.6,54.6,30.29,ENE,78,2.3,2.3,70,0.00,CLR,FEW,0.00,WeatherDisplay:10.37,2013-06-08 07:33:00,
2013-06-08 08:38:00,64.9,54.5,30.29,NW,325,3.5,3.5,69,0.00,CLR,FEW,0.00,WeatherDisplay:10.37,2013-06-08 07:38:00,
2013-06-08 08:43:00,64.6,54.2,30.30,West,280,4.6,4.6,69,0.00,CLR,FEW,0.00,WeatherDisplay:10.37,2013-06-08 07:43:00,
2013-06-08 08:48:00,64.8,54.3,30.30,West,280,4.6,4.6,69,0.00,CLR,FEW,0.00,WeatherDisplay:10.37,2013-06-08 07:48:00,
2013-06-08 08:53:00,64.9,54.9,30.30,East,100,3.5,3.5,70,0.00,CLR,FEW,0.00,WeatherDisplay:10.37,2013-06-08 07:53:00,
2013-06-08 08:58:00,64.8,54.7,30.30,WNW,302,2.9,2.9,70,0.00,CLR,FEW,0.00,WeatherDisplay:10.37,2013-06-08 07:58:00,
2013-06-08 09:03:00,65.3,55.3,30.31,SSE,168,2.3,2.3,70,0.00,CLR,FEW,0.00,WeatherDisplay:10.37,2013-06-08 08:03:00,
2013-06-08 09:08:00,65.5,55.4,30.31,NW,325,5.8,5.8,70,0.00,CLR,FEW,0.00,WeatherDisplay:10.37,2013-06-08 08:08:00,
2013-06-08 09:13:00,65.5,55.0,30.31,NW,325,3.5,3.5,69,0.00,CLR,FEW,0.00,WeatherDisplay:10.37,2013-06-08 08:13:00,
2013-06-08 09:18:00,65.7,55.2,30.31,NW,325,5.3,5.3,69,0.00,CLR,FEW,0.00,WeatherDisplay:10.37,2013-06-08 08:18:00,
2013-06-08 09:23:00,65.8,55.4,30.32,East,100,3.5,3.5,69,0.00,CLR,FEW,0.00,WeatherDisplay:10.37,2013-06-08 08:23:00,
2013-06-08 09:28:00,66.0,55.2,30.32,NW,325,2.3,2.3,68,0.00,CLR,FEW,0.00,WeatherDisplay:10.37,2013-06-08 08:28:00,
2013-06-08 09:33:00,66.0,55.2,30.32,ENE,78,3.5,3.5,68,0.00,CLR,FEW,0.00,WeatherDisplay:10.37,2013-06-08 08:33:00,
2013-06-08 09:38:00,66.4,55.5,30.32,NW,325,3.5,3.5,68,0.00,CLR,FEW,0.00,WeatherDisplay:10.37,2013-06-08 08:38:00,
2013-06-08 09:43:00,65.8,54.6,30.31,NW,325,3.5,3.5,67,0.00,CLR,FEW,0.00,WeatherDisplay:10.37,2013-06-08 08:43:00,
2013-06-08 09:48:00,65.5,55.0,30.31,ENE,78,4.6,4.6,69,0.00,CLR,FEW,0.00,WeatherDisplay:10.37,2013-06-08 08:48:00,
2013-06-08 09:53:00,65.8,55.4,30.31,WNW,302,3.5,3.5,69,0.00,CLR,FEW,0.00,WeatherDisplay:10.37,2013-06-08 08:53:00,
2013-06-08 09:58:00,66.0,55.6,30.31,NW,325,2.8,2.8,69,0.00,CLR,FEW,0.00,WeatherDisplay:10.37,2013-06-08 08:58:00,
2013-06-08 10:03:00,66.6,56.5,30.31,East,100,2.4,2.4,70,0.00,CLR,FEW,0.00,WeatherDisplay:10.37,2013-06-08 09:03:00,
2013-06-08 10:08:00,67.1,56.6,30.31,East,100,4.6,4.6,69,0.00,CLR,FEW,0.00,WeatherDisplay:10.37,2013-06-08 09:08:00,
2013-06-08 10:13:00,67.1,56.6,30.31,NW,325,2.7,2.8,69,0.00,CLR,FEW,0.00,WeatherDisplay:10.37,2013-06-08 09:13:00,
2013-06-08 10:18:00,67.3,56.4,30.31,ENE,78,4.0,4.0,68,0.00,CLR,FEW,0.00,WeatherDisplay:10.37,2013-06-08 09:18:00,
2013-06-08 10:23:00,66.9,56.4,30.31,East,100,6.9,6.9,69,0.00,CLR,FEW,0.00,WeatherDisplay:10.37,2013-06-08 09:23:00,
2013-06-08 10:28:00,67.1,56.6,30.31,NW,325,5.8,5.8,69,0.00,CLR,FEW,0.00,WeatherDisplay:10.37,2013-06-08 09:28:00,
2013-06-08 10:33:00,66.9,56.0,30.31,ESE,122,3.5,3.5,68,0.00,CLR,FEW,0.00,WeatherDisplay:10.37,2013-06-08 09:33:00,
2013-06-08 10:38:00,66.2,55.3,30.31,WSW,258,3.5,3.5,68,0.00,CLR,FEW,0.00,WeatherDisplay:10.37,2013-06-08 09:38:00,
2013-06-08 10:43:00,65.7,54.8,30.31,East,100,4.6,4.6,68,0.00,CLR,FEW,0.00,WeatherDisplay:10.37,2013-06-08 09:43:00,
2013-06-08 10:48:00,65.7,55.2,30.31,NW,325,5.8,5.8,69,0.00,CLR,FEW,0.00,WeatherDisplay:10.37,2013-06-08 09:48:00,
2013-06-08 10:53:00,66.4,55.9,30.31,ESE,122,2.3,2.8,69,0.00,CLR,FEW,0.00,WeatherDisplay:10.37,2013-06-08 09:53:00,
2013-06-08 10:58:00,66.7,55.8,30.31,SSW,212,4.6,4.6,68,0.00,CLR,FEW,0.00,WeatherDisplay:10.37,2013-06-08 09:58:00,
2013-06-08 11:03:00,66.6,55.7,30.31,ENE,78,2.3,2.4,68,0.00,FEW,,0.00,WeatherDisplay:10.37,2013-06-08 10:03:00,
2013-06-08 11:08:00,66.6,55.7,30.31,East,100,2.3,2.5,68,0.00,FEW,,0.00,WeatherDisplay:10.37,2013-06-08 10:08:00,
2013-06-08 11:13:00,67.1,56.6,30.31,ENE,78,2.3,2.3,69,0.00,FEW,,0.00,WeatherDisplay:10.37,2013-06-08 10:13:00,
2013-06-08 11:18:00,67.1,55.8,30.31,ENE,78,3.6,3.6,67,0.00,FEW,,0.00,WeatherDisplay:10.37,2013-06-08 10:18:00,
2013-06-08 11:23:00,67.5,56.1,30.32,NW,325,8.1,8.1,67,0.00,FEW,,0.00,WeatherDisplay:10.37,2013-06-08 10:23:00,
2013-06-08 11:28:00,67.5,56.1,30.32,East,100,4.6,4.6,67,0.00,FEW,,0.00,WeatherDisplay:10.37,2013-06-08 10:28:00,
2013-06-08 11:33:00,67.3,55.5,30.32,ENE,78,3.5,3.5,66,0.00,FEW,,0.00,WeatherDisplay:10.37,2013-06-08 10:33:00,
2013-06-08 11:38:00,67.3,55.9,30.32,East,100,4.6,4.6,67,0.00,FEW,,0.00,WeatherDisplay:10.37,2013-06-08 10:38:00,
2013-06-08 11:43:00,67.5,56.5,30.32,NW,325,4.6,4.6,68,0.00,FEW,,0.00,WeatherDisplay:10.37,2013-06-08 10:43:00,
2013-06-08 11:48:00,67.3,55.9,30.32,WNW,302,4.6,4.6,67,0.00,FEW,,0.00,WeatherDisplay:10.37,2013-06-08 10:48:00,
2013-06-08 11:53:00,67.5,56.5,30.32,ENE,78,4.6,4.6,68,0.00,FEW,,0.00,WeatherDisplay:10.37,2013-06-08 10:53:00,
2013-06-08 11:58:00,67.8,56.9,30.32,WNW,302,6.9,6.9,68,0.00,FEW,,0.00,WeatherDisplay:10.37,2013-06-08 10:58:00,
2013-06-08 12:03:00,67.8,56.9,30.32,ENE,78,1.2,3.0,68,0.00,SCT,FEW,0.00,WeatherDisplay:10.37,2013-06-08 11:03:00,
2013-06-08 12:08:00,67.8,56.9,30.32,ENE,78,1.2,3.0,68,0.00,SCT,FEW,0.00,WeatherDisplay:10.37,2013-06-08 11:08:00,
2013-06-08 12:13:00,67.8,56.9,30.32,ENE,78,5.8,5.8,68,0.00,SCT,FEW,0.00,WeatherDisplay:10.37,2013-06-08 11:13:00,
2013-06-08 12:18:00,67.8,56.9,30.32,ENE,78,5.8,5.8,68,0.00,SCT,FEW,0.00,WeatherDisplay:10.37,2013-06-08 11:18:00,
2013-06-08 12:23:00,67.8,56.9,30.32,East,100,4.6,4.6,68,0.00,SCT,FEW,0.00,WeatherDisplay:10.37,2013-06-08 11:23:00,
2013-06-08 12:28:00,67.8,56.9,30.32,East,100,5.8,5.8,68,0.00,SCT,FEW,0.00,WeatherDisplay:10.37,2013-06-08 11:28:00,
2013-06-08 12:34:00,67.8,56.9,30.32,East,100,4.6,4.6,68,0.00,SCT,FEW,0.00,WeatherDisplay:10.37,2013-06-08 11:34:00,
2013-06-08 12:39:00,67.8,56.9,30.32,NW,325,3.5,3.6,68,0.00,SCT,FEW,0.00,WeatherDisplay:10.37,2013-06-08 11:39:00,
2013-06-08 12:44:00,67.8,56.9,30.33,ENE,78,6.9,6.9,68,0.00,SCT,FEW,0.00,WeatherDisplay:10.37,2013-06-08 11:44:00,
2013-06-08 12:49:00,67.8,56.9,30.33,East,100,5.8,5.8,68,0.00,SCT,FEW,0.00,WeatherDisplay:10.37,2013-06-08 11:49:00,
2013-06-08 12:54:00,67.8,56.9,30.33,ENE,78,6.9,6.9,68,0.00,SCT,FEW,0.00,WeatherDisplay:10.37,2013-06-08 11:54:00,
2013-06-08 12:59:00,67.8,56.9,30.33,ENE,78,5.8,5.8,68,0.00,SCT,FEW,0.00,WeatherDisplay:10.37,2013-06-08 11:59:00,
2013-06-08 13:04:00,67.8,56.9,30.32,NW,325,5.8,5.8,68,0.00,SCT,FEW,0.00,WeatherDisplay:10.37,2013-06-08 12:04:00,
2013-06-08 13:09:00,67.8,56.9,30.32,NW,325,6.9,6.9,68,0.00,SCT,FEW,0.00,WeatherDisplay:10.37,2013-06-08 12:09:00,
2013-06-08 13:14:00,67.8,56.9,30.32,ENE,78,4.6,4.6,68,0.00,SCT,FEW,0.00,WeatherDisplay:10.37,2013-06-08 12:14:00,
2013-06-08 13:19:00,67.8,56.9,30.32,NW,325,3.5,3.5,68,0.00,SCT,FEW,0.00,WeatherDisplay:10.37,2013-06-08 12:19:00,
2013-06-08 13:24:00,67.8,56.9,30.32,WNW,302,8.1,8.1,68,0.00,SCT,FEW,0.00,WeatherDisplay:10.37,2013-06-08 12:24:00,
2013-06-08 13:29:00,67.8,56.9,30.32,East,100,5.8,5.8,68,0.00,SCT,FEW,0.00,WeatherDisplay:10.37,2013-06-08 12:29:00,
2013-06-08 13:34:00,67.8,56.9,30.32,NNE,32,3.5,3.6,68,0.00,SCT,FEW,0.00,WeatherDisplay:10.37,2013-06-08 12:34:00,
2013-06-08 13:39:00,67.8,56.9,30.32,ENE,78,6.9,6.9,68,0.00,SCT,FEW,0.00,WeatherDisplay:10.37,2013-06-08 12:39:00,
2013-06-08 13:44:00,67.8,56.9,30.32,ENE,78,5.8,5.8,68,0.00,SCT,FEW,0.00,WeatherDisplay:10.37,2013-06-08 12:44:00,
2013-06-08 13:49:00,67.8,56.9,30.32,NW,325,3.5,3.5,68,0.00,SCT,FEW,0.00,WeatherDisplay:10.37,2013-06-08 12:49:00,
2013-06-08 13:54:00,67.8,56.9,30.32,ENE,78,3.5,3.5,68,0.00,SCT,FEW,0.00,WeatherDisplay:10.37,2013-06-08 12:54:00,
2013-06-08 13:59:00,67.8,56.9,30.32,East,100,4.6,4.6,68,0.00,SCT,FEW,0.00,WeatherDisplay:10.37,2013-06-08 12:59:00,
2013-06-08 14:04:00,67.8,56.9,30.32,East,100,4.6,4.6,68,0.00,SCT,FEW,0.00,WeatherDisplay:10.37,2013-06-08 13:04:00,
2013-06-08 14:09:00,67.8,56.9,30.32,NW,325,5.8,5.8,68,0.00,SCT,FEW,0.00,WeatherDisplay:10.37,2013-06-08 13:09:00,
2013-06-08 14:14:00,67.8,56.9,30.32,West,280,5.8,5.8,68,0.00,SCT,FEW,0.00,WeatherDisplay:10.37,2013-06-08 13:14:00,
2013-06-08 14:19:00,67.8,56.9,30.32,ENE,78,6.9,6.9,68,0.00,SCT,FEW,0.00,WeatherDisplay:10.37,2013-06-08 13:19:00,
2013-06-08 14:24:00,67.8,56.9,30.32,ESE,122,5.8,5.8,68,0.00,SCT,FEW,0.00,WeatherDisplay:10.37,2013-06-08 13:24:00,
2013-06-08 14:29:00,67.8,56.9,30.32,ENE,78,9.2,9.2,68,0.00,SCT,FEW,0.00,WeatherDisplay:10.37,2013-06-08 13:29:00,
2013-06-08 14:34:00,67.8,56.9,30.32,ENE,78,5.8,5.8,68,0.00,SCT,FEW,0.00,WeatherDisplay:10.37,2013-06-08 13:34:00,
2013-06-08 14:39:00,67.8,56.9,30.32,SSE,168,5.8,5.8,68,0.00,SCT,FEW,0.00,WeatherDisplay:10.37,2013-06-08 13:39:00,
2013-06-08 14:44:00,67.8,56.9,30.32,ESE,122,9.2,9.2,68,0.00,SCT,FEW,0.00,WeatherDisplay:10.37,2013-06-08 13:44:00,
2013-06-08 14:49:00,67.8,56.9,30.32,East,100,9.2,9.2,68,0.00,SCT,FEW,0.00,WeatherDisplay:10.37,2013-06-08 13:49:00,
2013-06-08 14:54:00,67.8,56.9,30.32,NW,325,5.8,5.8,68,0.00,SCT,FEW,0.00,WeatherDisplay:10.37,2013-06-08 13:54:00,
2013-06-08 14:59:00,67.8,56.9,30.32,ENE,78,5.8,5.8,68,0.00,SCT,FEW,0.00,WeatherDisplay:10.37,2013-06-08 13:59:00,
2013-06-08 15:04:00,67.8,56.9,30.32,ENE,78,5.8,5.8,68,0.00,SCT,FEW,0.00,WeatherDisplay:10.37,2013-06-08 14:04:00,
2013-06-08 15:09:00,67.8,56.9,30.32,ENE,78,6.9,6.9,68,0.00,SCT,FEW,0.00,WeatherDisplay:10.37,2013-06-08 14:09:00,
2013-06-08 15:14:00,67.8,56.9,30.32,NW,325,6.9,6.9,68,0.00,SCT,FEW,0.00,WeatherDisplay:10.37,2013-06-08 14:14:00,
2013-06-08 15:19:00,67.8,56.9,30.32,East,100,6.9,6.9,68,0.00,SCT,FEW,0.00,WeatherDisplay:10.37,2013-06-08 14:19:00,
2013-06-08 15:24:00,67.8,56.9,30.31,ENE,78,6.9,6.9,68,0.00,SCT,FEW,0.00,WeatherDisplay:10.37,2013-06-08 14:24:00,
2013-06-08 15:29:00,67.8,56.9,30.31,ENE,78,5.8,5.8,68,0.00,SCT,FEW,0.00,WeatherDisplay:10.37,2013-06-08 14:29:00,
2013-06-08 15:34:00,67.8,56.9,30.31,ENE,78,6.9,6.9,68,0.00,SCT,FEW,0.00,WeatherDisplay:10.37,2013-06-08 14:34:00,
2013-06-08 15:39:00,67.8,56.9,30.31,East,100,8.1,8.1,68,0.00,SCT,FEW,0.00,WeatherDisplay:10.37,2013-06-08 14:39:00,
2013-06-08 15:44:00,67.8,56.9,30.32,NW,325,3.5,3.5,68,0.00,SCT,FEW,0.00,WeatherDisplay:10.37,2013-06-08 14:44:00,
2013-06-08 15:49:00,67.8,56.9,30.32,East,100,3.5,3.7,68,0.00,SCT,FEW,0.00,WeatherDisplay:10.37,2013-06-08 14:49:00,
2013-06-08 15:54:00,67.8,56.9,30.32,ENE,78,4.6,4.6,68,0.00,SCT,FEW,0.00,WeatherDisplay:10.37,2013-06-08 14:54:00,
2013-06-08 15:59:00,67.8,56.9,30.32,NW,325,8.1,8.1,68,0.00,SCT,FEW,0.00,WeatherDisplay:10.37,2013-06-08 14:59:00,
2013-06-08 16:04:00,67.8,56.9,30.31,East,100,6.9,6.9,68,0.00,FEW,,0.00,WeatherDisplay:10.37,2013-06-08 15:04:00,
2013-06-08 16:09:00,67.8,56.9,30.31,NW,325,5.8,5.8,68,0.00,FEW,,0.00,WeatherDisplay:10.37,2013-06-08 15:09:00,
2013-06-08 16:14:00,67.8,56.9,30.31,East,100,6.9,6.9,68,0.00,FEW,,0.00,WeatherDisplay:10.37,2013-06-08 15:14:00,
2013-06-08 16:19:00,67.8,56.9,30.31,WNW,302,4.6,4.6,68,0.00,FEW,,0.00,WeatherDisplay:10.37,2013-06-08 15:19:00,
2013-06-08 16:24:00,67.8,56.9,30.30,WNW,302,5.8,5.8,68,0.00,FEW,,0.00,WeatherDisplay:10.37,2013-06-08 15:24:00,
2013-06-08 16:29:00,67.8,56.9,30.30,ENE,78,3.5,3.5,68,0.00,FEW,,0.00,WeatherDisplay:10.37,2013-06-08 15:29:00,
2013-06-08 16:34:00,67.8,56.9,30.30,NW,325,4.6,4.6,68,0.00,FEW,,0.00,WeatherDisplay:10.37,2013-06-08 15:34:00,
2013-06-08 16:39:00,67.8,56.9,30.30,East,100,5.8,5.8,68,0.00,FEW,,0.00,WeatherDisplay:10.37,2013-06-08 15:39:00,
2013-06-08 16:44:00,67.8,56.9,30.30,West,280,2.8,3.0,68,0.00,FEW,,0.00,WeatherDisplay:10.37,2013-06-08 15:44:00,
2013-06-08 16:49:00,67.8,56.9,30.30,ENE,78,3.5,3.5,68,0.00,FEW,,0.00,WeatherDisplay:10.37,2013-06-08 15:49:00,
2013-06-08 16:54:00,67.8,56.9,30.30,East,100,4.6,4.6,68,0.00,FEW,,0.00,WeatherDisplay:10.37,2013-06-08 15:54:00,
2013-06-08 16:59:00,67.8,56.9,30.30,East,100,3.6,3.6,68,0.00,FEW,,0.00,WeatherDisplay:10.37,2013-06-08 15:59:00,
2013-06-08 17:04:00,67.8,56.9,30.30,ESE,122,5.8,5.8,68,0.00,FEW,,0.00,WeatherDisplay:10.37,2013-06-08 16:04:00,
2013-06-08 17:09:00,67.8,56.9,30.30,ENE,78,2.3,3.0,68,0.00,FEW,,0.00,WeatherDisplay:10.37,2013-06-08 16:09:00,
2013-06-08 17:14:00,67.8,56.9,30.30,East,100,3.7,3.7,68,0.00,FEW,,0.00,WeatherDisplay:10.37,2013-06-08 16:14:00,
2013-06-08 17:19:00,67.8,56.9,30.30,ESE,122,3.5,3.5,68,0.00,FEW,,0.00,WeatherDisplay:10.37,2013-06-08 16:19:00,
2013-06-08 17:24:00,67.8,56.9,30.30,ENE,78,4.6,4.6,68,0.00,FEW,,0.00,WeatherDisplay:10.37,2013-06-08 16:24:00,
2013-06-08 17:29:00,67.8,56.9,30.30,ENE,78,6.9,6.9,68,0.00,FEW,,0.00,WeatherDisplay:10.37,2013-06-08 16:29:00,
2013-06-08 17:34:00,67.8,56.9,30.30,ENE,78,4.6,4.6,68,0.00,FEW,,0.00,WeatherDisplay:10.37,2013-06-08 16:34:00,
2013-06-08 17:39:00,67.8,56.9,30.30,ENE,78,4.6,4.6,68,0.00,FEW,,0.00,WeatherDisplay:10.37,2013-06-08 16:39:00,
2013-06-08 17:44:00,67.8,56.9,30.28,ENE,78,5.8,5.8,68,0.00,FEW,,0.00,WeatherDisplay:10.37,2013-06-08 16:44:00,
2013-06-08 17:49:00,67.8,56.9,30.28,East,100,2.3,3.7,68,0.00,FEW,,0.00,WeatherDisplay:10.37,2013-06-08 16:49:00,
2013-06-08 17:54:00,67.8,56.9,30.28,East,100,3.5,3.7,68,0.00,FEW,,0.00,WeatherDisplay:10.37,2013-06-08 16:54:00,
2013-06-08 17:59:00,67.8,56.9,30.28,ENE,78,5.8,5.8,68,0.00,FEW,,0.00,WeatherDisplay:10.37,2013-06-08 16:59:00,
2013-06-08 18:04:00,67.8,56.9,30.27,ENE,78,4.6,4.6,68,0.00,FEW,,0.00,WeatherDisplay:10.37,2013-06-08 17:04:00,
2013-06-08 18:09:00,67.8,56.9,30.27,East,100,5.2,5.2,68,0.00,FEW,,0.00,WeatherDisplay:10.37,2013-06-08 17:09:00,
2013-06-08 18:14:00,67.8,56.9,30.27,ENE,78,5.8,5.8,68,0.00,FEW,,0.00,WeatherDisplay:10.37,2013-06-08 17:14:00,
2013-06-08 18:19:00,67.8,56.9,30.28,ENE,78,5.8,5.8,68,0.00,FEW,,0.00,WeatherDisplay:10.37,2013-06-08 17:19:00,
2013-06-08 18:25:00,67.8,56.9,30.28,East,100,4.6,4.6,68,0.00,FEW,,0.00,WeatherDisplay:10.37,2013-06-08 17:25:00,
2013-06-08 18:30:00,67.8,56.9,30.28,ENE,78,2.8,3.0,68,0.00,FEW,,0.00,WeatherDisplay:10.37,2013-06-08 17:30:00,
2013-06-08 18:35:00,67.8,56.9,30.28,ENE,78,3.5,3.5,68,0.00,FEW,,0.00,WeatherDisplay:10.37,2013-06-08 17:35:00,
2013-06-08 18:40:00,67.8,56.9,30.27,WNW,302,0.0,2.5,68,0.00,FEW,,0.00,WeatherDisplay:10.37,2013-06-08 17:40:00,
2013-06-08 18:45:00,67.8,56.9,30.27,East,100,3.5,3.5,68,0.00,FEW,,0.00,WeatherDisplay:10.37,2013-06-08 17:45:00,
2013-06-08 18:50:00,67.8,56.9,30.27,ENE,78,4.6,4.6,68,0.00,FEW,,0.00,WeatherDisplay:10.37,2013-06-08 17:50:00,
2013-06-08 18:55:00,67.8,56.9,30.27,ENE,78,3.5,3.5,68,0.00,FEW,,0.00,WeatherDisplay:10.37,2013-06-08 17:55:00,
2013-06-08 19:00:00,67.8,56.9,30.27,ENE,78,2.3,2.5,68,0.00,FEW,,0.00,WeatherDisplay:10.37,2013-06-08 18:00:00,
2013-06-08 19:05:00,67.8,56.9,30.27,East,100,4.6,4.6,68,0.00,FEW,,0.00,WeatherDisplay:10.37,2013-06-08 18:05:00,
2013-06-08 19:10:00,67.8,56.9,30.27,East,100,2.3,3.3,68,0.00,FEW,,0.00,WeatherDisplay:10.37,2013-06-08 18:10:00,
2013-06-08 19:15:00,67.8,56.9,30.27,ENE,78,4.6,4.6,68,0.00,FEW,,0.00,WeatherDisplay:10.37,2013-06-08 18:15:00,
2013-06-08 19:20:00,67.8,56.9,30.27,ENE,78,4.6,4.6,68,0.00,FEW,,0.00,WeatherDisplay:10.37,2013-06-08 18:20:00,
2013-06-08 19:25:00,67.8,56.9,30.27,SE,145,4.6,4.6,68,0.00,FEW,,0.00,WeatherDisplay:10.37,2013-06-08 18:25:00,
2013-06-08 19:30:00,67.8,56.9,30.27,NW,325,3.5,3.5,68,0.00,FEW,,0.00,WeatherDisplay:10.37,2013-06-08 18:30:00,
2013-06-08 19:35:00,67.8,56.9,30.27,ENE,78,3.5,3.5,68,0.00,FEW,,0.00,WeatherDisplay:10.37,2013-06-08 18:35:00,
2013-06-08 19:40:00,67.8,56.9,30.26,ESE,122,1.2,2.7,68,0.00,FEW,,0.00,WeatherDisplay:10.37,2013-06-08 18:40:00,
2013-06-08 19:45:00,67.8,56.9,30.26,ENE,78,4.6,4.6,68,0.00,FEW,,0.00,WeatherDisplay:10.37,2013-06-08 18:45:00,
2013-06-08 19:50:00,67.8,56.9,30.26,East,100,4.6,4.6,68,0.00,FEW,,0.00,WeatherDisplay:10.37,2013-06-08 18:50:00,
2013-06-08 19:55:00,67.8,56.9,30.26,ENE,78,4.6,4.6,68,0.00,FEW,,0.00,WeatherDisplay:10.37,2013-06-08 18:55:00,
2013-06-08 20:00:00,67.8,56.9,30.25,ENE,78,3.5,3.5,68,0.00,FEW,,0.00,WeatherDisplay:10.37,2013-06-08 19:00:00,
2013-06-08 20:05:00,67.8,56.9,30.25,ENE,78,5.8,5.8,68,0.00,FEW,,0.00,WeatherDisplay:10.37,2013-06-08 19:05:00,
2013-06-08 20:10:00,67.8,56.9,30.25,ENE,78,4.6,4.6,68,0.00,FEW,,0.00,WeatherDisplay:10.37,2013-06-08 19:10:00,
2013-06-08 20:15:00,61.5,50.9,30.25,East,100,2.3,2.8,68,0.00,FEW,,0.00,WeatherDisplay:10.37,2013-06-08 19:15:00,
2013-06-08 20:20:00,61.5,50.9,30.25,NW,325,2.3,2.4,68,0.00,FEW,,0.00,WeatherDisplay:10.37,2013-06-08 19:20:00,
2013-06-08 20:25:00,61.3,50.7,30.25,East,100,3.6,3.6,68,0.00,FEW,,0.00,WeatherDisplay:10.37,2013-06-08 19:25:00,
2013-06-08 20:30:00,61.3,50.7,30.25,ENE,78,2.3,2.3,68,0.00,FEW,,0.00,WeatherDisplay:10.37,2013-06-08 19:30:00,
2013-06-08 20:35:00,61.2,50.9,30.25,ESE,122,1.2,1.9,69,0.00,FEW,,0.00,WeatherDisplay:10.37,2013-06-08 19:35:00,
2013-06-08 20:40:00,60.8,51.0,30.24,ENE,78,0.0,1.0,70,0.00,FEW,,0.00,WeatherDisplay:10.37,2013-06-08 19:40:00,
2013-06-08 20:45:00,60.6,51.2,30.24,SE,145,0.0,0.5,71,0.00,FEW,,0.00,WeatherDisplay:10.37,2013-06-08 19:45:00,
2013-06-08 20:50:00,60.6,51.2,30.24,East,100,2.3,2.3,71,0.00,FEW,,0.00,WeatherDisplay:10.37,2013-06-08 19:50:00,
2013-06-08 20:55:00,60.3,50.4,30.24,NW,325,2.3,2.3,70,0.00,FEW,,0.00,WeatherDisplay:10.37,2013-06-08 19:55:00,
2013-06-08 21:00:00,60.3,50.8,30.24,ENE,78,2.3,2.3,71,0.00,FEW,,0.00,WeatherDisplay:10.37,2013-06-08 20:00:00,
2013-06-08 21:05:00,60.3,50.8,30.24,WSW,258,2.3,2.3,71,0.00,FEW,,0.00,WeatherDisplay:10.37,2013-06-08 20:05:00,
2013-06-08 21:10:00,59.9,50.5,30.24,NW,325,3.5,3.5,71,0.00,FEW,,0.00,WeatherDisplay:10.37,2013-06-08 20:10:00,
2013-06-08 21:15:00,59.5,50.5,30.24,East,100,2.3,2.3,72,0.00,FEW,,0.00,WeatherDisplay:10.37,2013-06-08 20:15:00,
2013-06-08 21:20:00,59.4,50.3,30.22,NNW,348,1.2,1.2,72,0.00,FEW,,0.00,WeatherDisplay:10.37,2013-06-08 20:20:00,
2013-06-08 21:25:00,59.4,50.3,30.22,East,100,2.3,2.3,72,0.00,FEW,,0.00,WeatherDisplay:10.37,2013-06-08 20:25:00,
2013-06-08 21:30:00,59.2,50.2,30.22,East,100,2.3,2.3,72,0.00,FEW,,0.00,WeatherDisplay:10.37,2013-06-08 20:30:00,
2013-06-08 21:35:00,59.2,50.2,30.22,East,100,1.2,1.2,72,0.00,FEW,,0.00,WeatherDisplay:10.37,2013-06-08 20:35:00,
2013-06-08 21:40:00,58.8,49.8,30.22,WNW,302,0.0,0.2,72,0.00,FEW,,0.00,WeatherDisplay:10.37,2013-06-08 20:40:00,
2013-06-08 21:45:00,58.6,49.6,30.22,NW,325,0.0,0.1,72,0.00,FEW,,0.00,WeatherDisplay:10.37,2013-06-08 20:45:00,
2013-06-08 21:50:00,58.3,49.7,30.22,East,100,2.3,2.3,73,0.00,FEW,,0.00,WeatherDisplay:10.37,2013-06-08 20:50:00,
2013-06-08 21:55:00,58.5,49.8,30.22,NW,325,1.2,1.2,73,0.00,FEW,,0.00,WeatherDisplay:10.37,2013-06-08 20:55:00,
2013-06-08 22:00:00,57.9,49.3,30.22,ENE,78,2.3,2.3,73,0.00,FEW,,0.00,WeatherDisplay:10.37,2013-06-08 21:00:00,
2013-06-08 22:05:00,57.9,49.7,30.22,East,100,0.0,0.8,74,0.00,FEW,,0.00,WeatherDisplay:10.37,2013-06-08 21:05:00,
2013-06-08 22:10:00,57.7,49.5,30.22,East,100,0.0,0.4,74,0.00,FEW,,0.00,WeatherDisplay:10.37,2013-06-08 21:10:00,
2013-06-08 22:15:00,57.7,49.5,30.22,East,100,0.0,0.0,74,0.00,FEW,,0.00,WeatherDisplay:10.37,2013-06-08 21:15:00,
2013-06-08 22:20:00,57.4,49.2,30.22,East,100,0.0,0.0,74,0.00,FEW,,0.00,WeatherDisplay:10.37,2013-06-08 21:20:00,
2013-06-08 22:25:00,57.4,49.5,30.22,East,100,0.0,0.0,75,0.00,FEW,,0.00,WeatherDisplay:10.37,2013-06-08 21:25:00,
2013-06-08 22:30:00,57.0,49.2,30.22,East,100,0.0,0.0,75,0.00,FEW,,0.00,WeatherDisplay:10.37,2013-06-08 21:30:00,
2013-06-08 22:35:00,56.7,49.2,30.22,East,100,0.0,0.0,76,0.00,FEW,,0.00,WeatherDisplay:10.37,2013-06-08 21:35:00,
2013-06-08 22:40:00,56.5,49.0,30.21,East,100,0.0,0.0,76,0.00,FEW,,0.00,WeatherDisplay:10.37,2013-06-08 21:40:00,
2013-06-08 22:45:00,56.3,48.8,30.21,East,100,0.0,0.0,76,0.00,FEW,,0.00,WeatherDisplay:10.37,2013-06-08 21:45:00,
2013-06-08 22:50:00,56.3,49.2,30.21,East,100,0.0,0.0,77,0.00,FEW,,0.00,WeatherDisplay:10.37,2013-06-08 21:50:00,
2013-06-08 22:55:00,56.3,49.2,30.21,SE,145,0.0,0.0,77,0.00,FEW,,0.00,WeatherDisplay:10.37,2013-06-08 21:55:00,
2013-06-08 23:00:00,55.9,48.8,30.21,SE,145,0.0,0.0,77,0.00,FEW,,0.00,WeatherDisplay:10.37,2013-06-08 22:00:00,
2013-06-08 23:05:00,55.8,49.0,30.21,SE,145,0.0,0.0,78,0.00,FEW,,0.00,WeatherDisplay:10.37,2013-06-08 22:05:00,
2013-06-08 23:10:00,55.8,49.0,30.21,SE,145,0.0,0.0,78,0.00,FEW,,0.00,WeatherDisplay:10.37,2013-06-08 22:10:00,
2013-06-08 23:15:00,55.6,48.8,30.21,ENE,78,1.2,1.2,78,0.00,FEW,,0.00,WeatherDisplay:10.37,2013-06-08 22:15:00,
2013-06-08 23:20:00,55.6,49.2,30.20,East,100,1.2,1.2,79,0.00,FEW,,0.00,WeatherDisplay:10.37,2013-06-08 22:20:00,
2013-06-08 23:25:00,55.8,49.3,30.20,ENE,78,1.2,1.2,79,0.00,FEW,,0.00,WeatherDisplay:10.37,2013-06-08 22:25:00,
2013-06-08 23:30:00,55.8,49.7,30.20,ENE,78,2.3,2.3,80,0.00,FEW,,0.00,WeatherDisplay:10.37,2013-06-08 22:30:00,
2013-06-08 23:35:00,55.9,49.9,30.20,East,100,0.0,0.5,80,0.00,FEW,,0.00,WeatherDisplay:10.37,2013-06-08 22:35:00,
2013-06-08 23:40:00,55.6,49.5,30.20,East,100,1.2,1.2,80,0.00,FEW,,0.00,WeatherDisplay:10.37,2013-06-08 22:40:00,
2013-06-08 23:46:00,55.4,49.7,30.20,East,100,1.2,1.2,81,0.00,FEW,,0.00,WeatherDisplay:10.37,2013-06-08 22:46:00,
2013-06-08 23:51:00,55.4,49.7,30.20,ENE,78,2.3,2.3,81,0.00,FEW,,0.00,WeatherDisplay:10.37,2013-06-08 22:51:00,
2013-06-08 23:56:00,55.6,50.2,30.20,SE,145,2.3,2.3,82,0.00,FEW,,0.00,WeatherDisplay:10.37,2013-06-08 22:56:00,